Regional Weather Roundup
Issued by NWS Sioux Falls, SD

Home | Current Version | Previous Version | Graphics & Text | Print | Product List | Glossary Off
Versions: 1 2 3 4 5 6 7 8 9 10 11 12 13 14 15 16 17 18 19 20 21 22 23 24 25 26 27 28 29 30 31 32 33 34 35 36 37 38 39 40 41 42 43 44 45 46 47 48 49 50

000
ASUS43 KFSD 011402
RWRFSD

WEATHER ROUNDUP FOR SE SOUTH DAKOTA/SW MINNESOTA/NW IOWA
NATIONAL WEATHER SERVICE SIOUX FALLS SD
800 AM CST SUN FEB 01 2015

NOTE: "FAIR" INDICATES FEW OR NO CLOUDS BELOW 12,000 FEET WITH NO
SIGNIFICANT WEATHER AND OR OBSTRUCTIONS TO VISIBILITY.


SDZ038>040-050-052>070-011500-
SOUTHEAST SOUTH DAKOTA

CITY           SKY/WX    TMP DP  RH WIND       PRES   REMARKS
CHAMBERLAIN    NOT AVBL
HURON          LGT SNOW   0  -6  76 N24G31    30.34R WCI -24
MADISON        LGT SNOW   3   1  92 N26G32    30.19R WCI -20
MITCHELL       LGT SNOW   2  -3  80 N24G30    30.31R WCI -21
SIOUX FALLS    SNOW       7   3  84 N24G31    30.16R VSB 1/2 WCI -14
WINNER         LGT SNOW   2  -3  80 N23       30.31R WCI -21
YANKTON          N/A    N/A N/A N/A N24G33    30.19R VSB 3/4
$$

MNZ071-072-080-081-089-090-097-098-011500-
SOUTHWEST MINNESOTA

CITY           SKY/WX    TMP DP  RH WIND       PRES   REMARKS
FAIRMONT       CLOUDY    16  10  79 N18G28    30.07R VSB 3/4 WCI  -1
JACKSON        LGT SNOW  16  12  86 N26G33    30.08R WCI  -3
LUVERNE        LGT SNOW  12   9  85 N21G31    30.13R VSB 3/4 WCI  -6
MARSHALL       MOCLDY     9   0  66 N22G29    30.24R WCI -11
MONTEVIDEO     CLOUDY     9   1  72 NE21      30.29R WCI -11
PIPESTONE      LGT SNOW   7   3  85 N17G26    30.14S VSB 3/4 WCI -12
REDWOOD FALLS  LGT SNOW  11   6  81 N13G22    30.23R WCI  -4
TRACY          LGT SNOW  11   8  87 N23       30.20R VSB 1   WCI  -9
WINDOM         LGT SNOW  12  10  92 N26       30.11R WCI  -8
WORTHINGTON    CLOUDY    30   5  34 N21G30    30.10R VSB 1/2 WCI  17
$$

IAZ001>003-012>014-020>022-031-032-NEZ013-014-SDZ071-011500-
NORTHWEST IOWA

CITY           SKY/WX    TMP DP  RH WIND       PRES   REMARKS
ESTHERVILLE    FOG       15  12  88 N24G36    30.04R VSB 1   WCI  -4
SIOUX CITY     LGT SNOW  19  14  81 N23G36    30.05R VSB 3/4 WCI   2
SPENCER        LGT SNOW  16  11  80 N29G37    30.03R WCI  -4
$$

ABBREVIATIONS USED IN REMARKS
   TC - TEMPERATURE IN CELSIUS
  WCI - WIND CHILL INDEX
   HX - HEAT INDEX
  VSB - VISIBILITY



USA.gov is the U.S. government's official web portal to all federal, state and local government web resources and services.